{"data":{"norad_id":48410,"intl_designator":"2021-038BK","name":"STARLINK-2563","alt_names":[],"object_type":"PAYLOAD","status":"ACTIVE","operator":null,"country":"US","launch_date":"2021-05-04","launch_site_code":"AFETR","launch_vehicle":null,"mission":null,"orbit_class":"UNKNOWN","rcs_meters":null,"size_class":null,"mass_kg":null,"dimensions":null,"purposes":["comms"],"wikipedia_slug":null,"has_3d_model":false,"image_url":null,"decayed_at":null,"tle_current":{"epoch":"2026-05-24T22:02:41.748000Z","epoch_age_seconds":86123,"freshness":"FRESH","line1":"1 48410U 21038BK  26144.91853875  .00001172  00000+0  49470-4 0  9992","line2":"2 48410  53.1596 302.0311 0000784  79.9255 280.1835 15.31722896279621","mean_motion":15.31722896,"eccentricity":7.84e-5,"inclination_deg":53.1596,"raan_deg":302.0311,"arg_perigee_deg":79.9255,"mean_anomaly_deg":280.1835,"bstar":4.947e-5,"rev_number":27962,"period_min":94.011782663853,"perigee_km":470.13479768569,"apogee_km":471.2086908968,"semimajor_km":6848.8087442912,"source":"CELESTRAK","updated_at":"2026-05-25T13:38:16.713120Z"}}}